Leakey, Texas, United States (78873)
Lat: 29.73N, Lon: 99.76W
Wx Zone: TXZ185
Local Info
Past Weather Observations for Monday, July 27, 2015

NOTE: This archive is for the closest National Weather Service station to Leakey. Information may differ from the station used for current weather conditions.

Click here for Long-term Archive

Time Weather Temperature Dewpoint Humidity Pressure Winds Precip Visibility
23:50
Partly Cloudy
81°F / 27°C 70°F / 21°C 70% 30.04 in
(1017 mb)
SE 11.5 mph
(SE 19 kph)
- 8SM
23:30
Partly Cloudy
81°F / 27°C 70°F / 21°C 70% 30.04 in
(1017 mb)
SE 11.5 mph
(SE 19 kph)
- 9SM
23:10
Partly Cloudy
81°F / 27°C 68°F / 20°C 66% 30.04 in
(1017 mb)
SE 11.5 mph
(SE 19 kph)
- 9SM
22:50
Mostly Cloudy
82°F / 28°C 66°F / 19°C 58% 30.04 in
(1017 mb)
SE 8.1 mph
(SE 13 kph)
- 10SM
22:30
Mostly Cloudy
82°F / 28°C 66°F / 19°C 58% 30.04 in
(1017 mb)
SE 10.4 mph
(SE 17 kph)
- 9SM
22:10
Mostly Cloudy
82°F / 28°C 64°F / 18°C 55% 30.01 in
(1016 mb)
SE 9.2 mph
(SE 15 kph)
- 10SM
21:50
Mostly Cloudy
84°F / 29°C 63°F / 17°C 48% 30.01 in
(1016 mb)
SE 9.2 mph
(SE 15 kph)
- 10SM
21:30
Mostly Cloudy
84°F / 29°C 63°F / 17°C 48% 30.01 in
(1016 mb)
SE 6.9 mph
(SE 11 kph)
- 9SM
21:10
Partly Cloudy
84°F / 29°C 61°F / 16°C 45% 30.01 in
(1016 mb)
SE 4.6 mph
(SE 7 kph)
- 9SM
20:50
Partly Cloudy
84°F / 29°C 61°F / 16°C 45% 30.01 in
(1016 mb)
SE 6.9 mph
(SE 11 kph)
- 10SM
20:30
Partly Cloudy
84°F / 29°C 63°F / 17°C 48% 29.98 in
(1015 mb)
SE 5.8 mph
(SE 9 kph)
- 10SM
20:10
Mostly Cloudy
86°F / 30°C 63°F / 17°C 46% 29.98 in
(1015 mb)
SE 6.9 mph
(SE 11 kph)
- 10SM
19:50
Mostly Cloudy
88°F / 31°C 63°F / 17°C 43% 29.98 in
(1015 mb)
SE 5.8 mph
(SE 9 kph)
- 9SM
19:30
Partly Cloudy
88°F / 31°C 63°F / 17°C 43% 29.98 in
(1015 mb)
SE 9.2 mph
(SE 15 kph)
- 8SM
19:10
Partly Cloudy
90°F / 32°C 63°F / 17°C 41% 29.95 in
(1014 mb)
SE 10.4 mph
(SE 17 kph)
- 8SM
18:50
Partly Cloudy
90°F / 32°C 63°F / 17°C 41% 29.95 in
(1014 mb)
SE 10.4 mph
(SE 17 kph)
- 8SM
18:30
Partly Cloudy
91°F / 33°C 63°F / 17°C 38% 29.95 in
(1014 mb)
SSE 11.5 mph
(SSE 19 kph)
- 7SM
18:10
Partly Cloudy
91°F / 33°C 61°F / 16°C 36% 29.95 in
(1014 mb)
SSE 13.8 mph
(SSE 22 kph)
- 8SM
17:50
Partly Cloudy
93°F / 34°C 63°F / 17°C 36% 29.95 in
(1014 mb)
SE 11.5 mph
(SE 19 kph)
- 8SM
17:30
Partly Cloudy
93°F / 34°C 63°F / 17°C 36% 29.95 in
(1014 mb)
SSE 9.2 mph
(SSE 15 kph)
- 9SM
17:10
Partly Cloudy
93°F / 34°C 61°F / 16°C 34% 29.95 in
(1014 mb)
S 10.4 mph
(S 17 kph)
- 9SM
16:50
Partly Cloudy
97°F / 36°C 63°F / 17°C 32% 29.95 in
(1014 mb)
SE 12.7 mph
(SE 20 kph)
- 7SM
16:30
Partly Cloudy
95°F / 35°C 63°F / 17°C 34% 29.95 in
(1014 mb)
SE 10.4 mph
(SE 17 kph)
- 8SM
16:10
Partly Cloudy
97°F / 36°C 61°F / 16°C 30% 29.95 in
(1014 mb)
SSE 11.5 mph
(SSE 19 kph)
- 8SM
15:50
Partly Cloudy
97°F / 36°C 61°F / 16°C 30% 29.95 in
(1014 mb)
SE 13.8 mph
(SE 22 kph)
- 7SM
15:30
Partly Cloudy
97°F / 36°C 63°F / 17°C 32% 29.95 in
(1014 mb)
SSE 12.7 mph
(SSE 20 kph)
- 8SM
15:10
Partly Cloudy
97°F / 36°C 63°F / 17°C 32% 29.98 in
(1015 mb)
SSE 11.5 mph
(SSE 19 kph)
- 8SM
14:50
Partly Cloudy
95°F / 35°C 63°F / 17°C 34% 29.98 in
(1015 mb)
SE 11.5 mph
(SE 19 kph)
- 9SM
14:30
Partly Cloudy
97°F / 36°C 63°F / 17°C 32% 29.98 in
(1015 mb)
SSE 11.5 mph
(SSE 19 kph)
- 8SM
14:10
Partly Cloudy
97°F / 36°C 63°F / 17°C 32% 29.98 in
(1015 mb)
SSE 11.5 mph
(SSE 19 kph)
- 9SM
13:50
Partly Cloudy
95°F / 35°C 63°F / 17°C 34% 30.01 in
(1016 mb)
S 11.5 mph
(S 19 kph)
- 8SM
13:30
Partly Cloudy
93°F / 34°C 63°F / 17°C 36% 30.01 in
(1016 mb)
SSE 12.7 mph
(SSE 20 kph)
- 8SM
13:10
Clear
93°F / 34°C 63°F / 17°C 36% 30.01 in
(1016 mb)
SSE 11.5 mph
(SSE 19 kph)
- 8SM
12:50
Clear
93°F / 34°C 63°F / 17°C 36% 30.01 in
(1016 mb)
SSE 12.7 mph
(SSE 20 kph)
- 8SM
12:30
Clear
93°F / 34°C 61°F / 16°C 34% 30.04 in
(1017 mb)
SSE 11.5 mph
(SSE 19 kph)
- 8SM
12:10
Clear
93°F / 34°C 57°F / 14°C 30% 30.04 in
(1017 mb)
SSE 13.8 mph
(SSE 22 kph)
- 10SM
11:50
Clear
91°F / 33°C 59°F / 15°C 34% 30.04 in
(1017 mb)
SSE 15 mph
(SSE 24 kph)
- 10SM
11:30
Partly Cloudy
91°F / 33°C 61°F / 16°C 36% 30.04 in
(1017 mb)
SSE 11.5 mph
(SSE 19 kph)
- 8SM
11:10
Partly Cloudy
91°F / 33°C 59°F / 15°C 34% 30.04 in
(1017 mb)
SSE 13.8 mph
(SSE 22 kph)
- 9SM
10:50
Mostly Cloudy
90°F / 32°C 61°F / 16°C 38% 30.04 in
(1017 mb)
SSE 12.7 mph
(SSE 20 kph)
- 9SM
10:30
Partly Cloudy
90°F / 32°C 63°F / 17°C 41% 30.04 in
(1017 mb)
SE 12.7 mph
(SE 20 kph)
- 8SM
10:10
Partly Cloudy
88°F / 31°C 63°F / 17°C 43% 30.04 in
(1017 mb)
SE 12.7 mph
(SE 20 kph)
- 7SM
09:50
Partly Cloudy
86°F / 30°C 66°F / 19°C 52% 30.04 in
(1017 mb)
SE 9.2 mph
(SE 15 kph)
- 8SM
09:30
Clear
84°F / 29°C 66°F / 19°C 55% 30.04 in
(1017 mb)
SSE 10.4 mph
(SSE 17 kph)
- 7SM
09:10
Clear
84°F / 29°C 68°F / 20°C 58% 30.04 in
(1017 mb)
SE 5.8 mph
(SE 9 kph)
- 8SM
08:50
Clear
82°F / 28°C 66°F / 19°C 58% 30.04 in
(1017 mb)
S 8.1 mph
(S 13 kph)
- 8SM
08:30
Clear
82°F / 28°C 66°F / 19°C 58% 30.04 in
(1017 mb)
SSE 10.4 mph
(SSE 17 kph)
- 7SM
08:10
Clear
81°F / 27°C 66°F / 19°C 62% 30.04 in
(1017 mb)
SSE 10.4 mph
(SSE 17 kph)
- 7SM
07:50
Clear
79°F / 26°C 66°F / 19°C 65% 30.04 in
(1017 mb)
SSE 9.2 mph
(SSE 15 kph)
- 8SM
07:30
Clear
Hazy
79°F / 26°C 70°F / 21°C 74% 30.01 in
(1016 mb)
SSE 6.9 mph
(SSE 11 kph)
- 5SM
07:10
Clear
Hazy
75°F / 24°C 70°F / 21°C 83% 30.01 in
(1016 mb)
SE 8.1 mph
(SE 13 kph)
- 5SM
06:50
Clear
Fog And Mist
75°F / 24°C 72°F / 22°C 89% 30.01 in
(1016 mb)
SE 6.9 mph
(SE 11 kph)
- 5SM
06:30
Clear
Fog And Mist
73°F / 23°C 72°F / 22°C 94% 30.01 in
(1016 mb)
SE 3.5 mph
(SE 6 kph)
- 4SM
06:10
Clear
Fog And Mist
73°F / 23°C 72°F / 22°C 94% 30.01 in
(1016 mb)
SE 5.8 mph
(SE 9 kph)
- 4SM
05:50
Clear
Fog And Mist
73°F / 23°C 72°F / 22°C 94% 30.01 in
(1016 mb)
SSE 4.6 mph
(SSE 7 kph)
- 4SM
05:30
Clear
Fog And Mist
73°F / 23°C 72°F / 22°C 94% 30.01 in
(1016 mb)
SSE 6.9 mph
(SSE 11 kph)
- 5SM
05:10
Clear
Fog And Mist
73°F / 23°C 72°F / 22°C 94% 29.98 in
(1015 mb)
SSE 8.1 mph
(SSE 13 kph)
- 5SM
04:50
Clear
Fog And Mist
73°F / 23°C 72°F / 22°C 94% 29.98 in
(1015 mb)
SSE 6.9 mph
(SSE 11 kph)
- 5SM
04:30
Clear
Fog And Mist
75°F / 24°C 72°F / 22°C 89% 30.01 in
(1016 mb)
SE 6.9 mph
(SE 11 kph)
- 5SM
04:10
Clear
Fog And Mist
75°F / 24°C 72°F / 22°C 89% 29.98 in
(1015 mb)
SE 8.1 mph
(SE 13 kph)
- 5SM
03:50
Clear
Fog And Mist
75°F / 24°C 72°F / 22°C 89% 29.98 in
(1015 mb)
SSE 8.1 mph
(SSE 13 kph)
- 5SM
03:30
Clear
Fog And Mist
75°F / 24°C 73°F / 23°C 94% 29.98 in
(1015 mb)
SSE 8.1 mph
(SSE 13 kph)
- 5SM
03:10
Partly Cloudy
75°F / 24°C 73°F / 23°C 94% 29.98 in
(1015 mb)
SSE 9.2 mph
(SSE 15 kph)
- 7SM
02:50
Clear
Fog And Mist
77°F / 25°C 73°F / 23°C 89% 29.98 in
(1015 mb)
SSE 9.2 mph
(SSE 15 kph)
- 6SM
02:30
Clear
77°F / 25°C 73°F / 23°C 89% 29.98 in
(1015 mb)
SSE 9.2 mph
(SSE 15 kph)
- 7SM
02:10
Partly Cloudy
79°F / 26°C 73°F / 23°C 84% 29.98 in
(1015 mb)
SSE 11.5 mph
(SSE 19 kph)
- 7SM
01:50
Partly Cloudy
79°F / 26°C 73°F / 23°C 84% 29.98 in
(1015 mb)
SSE 11.5 mph
(SSE 19 kph)
- 7SM
01:30
Partly Cloudy
79°F / 26°C 73°F / 23°C 84% 29.98 in
(1015 mb)
SE 12.7 mph
(SE 20 kph)
- 7SM
01:10
Partly Cloudy
79°F / 26°C 73°F / 23°C 84% 30.01 in
(1016 mb)
SSE 12.7 mph
(SSE 20 kph)
- 7SM
00:50
Partly Cloudy
81°F / 27°C 73°F / 23°C 79% 29.98 in
(1015 mb)
SSE 13.8 mph
(SSE 22 kph)
- 7SM
00:30
Partly Cloudy
81°F / 27°C 72°F / 22°C 74% 29.98 in
(1015 mb)
SSE 12.7 mph
(SSE 20 kph)
- 7SM
00:10
Partly Cloudy
81°F / 27°C 72°F / 22°C 74% 30.01 in
(1016 mb)
SSE 10.4 mph
(SSE 17 kph)
- 8SM
Time Weather Temperature Dewpoint Humidity Pressure Winds Precip Visibility


Weather for websites

WeatherForYou.com, LLC is not responsible for any damages or problems caused by this service. Current weather conditions are obtained from the closest station including government and personal stations which may have varying degrees of accuracy. Weather forecasts are derived from the NOAA NDFD. Like all things, this site belongs to Jesus Christ... He just trusts us to maintain it. If you have any questions or comments email webmaster@weatherforyou.com

Copyright © 2015, WeatherForYou.com LLC. All rights reserved.